Regional Weather Roundup
Issued by NWS Goodland, KS

Home | Current Version | Previous Version | Graphics & Text | Print | Product List | Glossary On
Versions: 1 2 3 4 5 6 7 8 9 10 11 12 13 14 15 16 17 18 19 20 21 22 23 24 25 26 27 28 29 30 31 32 33 34 35 36 37 38 39 40 41 42 43 44 45 46 47 48 49 50
000
ASUS43 KGLD 221859
RWRGLD

GOODLAND FORECAST AREA HOURLY WEATHER ROUNDUP
NATIONAL WEATHER SERVICE GOODLAND KS
1200 PM MST SUN JAN 22 2017

...OFFICIAL OBSERVATIONS...

CITY           SKY/WX    TMP DP  RH WIND       PRES   REMARKS
GOODLAND KS    SUNNY     45  27  49 N17       29.89F
HILL CITY KS   SUNNY     49  27  42 N15G23    29.87F
IMPERIAL NEB   SUNNY     44  26  49 NW15      29.89F
MCCOOK NEB     SUNNY     48  28  46 NW12      29.87F
AKRON CO       SUNNY     43  20  39 NW16      29.91F
BURLINGTON CO  SUNNY     44  25  47 N18       29.91F
LIMON CO       SUNNY     42  16  34 NW13      29.93F
$$

...UNOFFICIAL OBSERVATIONS...

CITY           SKY/WX    TMP DP  RH WIND       PRES   REMARKS
LENORA KS        N/A     46  32  58 N10         N/A
NORTON KS      SUNNY     45  28  53 NW14      29.86F
SHARON SPRINGS   N/A     45  31  57 N18         N/A
TRENTON NEB      N/A     44  32  63 N9          N/A
KIT CARSON CO    N/A     43  23  45 MISG        N/A
YUMA CO        FAIR      41  23  48 NW14      29.91S
$$




USA.gov is the U.S. government's official web portal to all federal, state and local government web resources and services.